Regional Weather Roundup
Issued by NWS Kansas City/Pleasant Hill, MO

Home | Current Version | Previous Version | Text Only | Print | Product List | Glossary On
Versions: 1 2 3 4 5 6 7 8 9 10 11 12 13 14 15 16 17 18 19 20 21 22 23 24 25 26 27 28 29 30 31 32 33 34 35 36 37 38 39 40 41 42 43 44 45 46 47 48 49 50
000
ASUS43 KEAX 282010
RWREAX

WEATHER ROUNDUP FOR EASTERN KANSAS AND NORTHWEST MISSOURI
NATIONAL WEATHER SERVICE KANSAS CITY/PLEASANT HILL MO
300 PM CDT SAT MAR 28 2015

KSZ040-057-103>105-MOZ028-029-037-043-282100-
...KANSAS CITY METROPOLITAN AREA...

CITY           SKY/WX    TMP DP  RH WIND       PRES   REMARKS
K.C. INTL      MOSUNNY   51  31  46 E16G29    30.14F
K.C. DOWNTOWN  MOSUNNY   54  30  40 SE13G20   30.13F
LEES SUMMIT    MOSUNNY   50  30  46 SE10G20   30.15F
OLATHE - IXD   SUNNY     51  30  44 SE13G22   30.14F
OLATHE - OJC   SUNNY     51  31  46 SE13G21   30.13F
LAWRENCE       SUNNY     54  31  41 SE16G24   30.13F

$$

MOZ001>008-011>017-020>025-030>033-038>040-044>046-053-054-282100-
...NORTHERN AND CENTRAL MISSOURI...

CITY           SKY/WX    TMP DP  RH WIND       PRES   REMARKS
ST. JOSEPH     SUNNY     52  31  44 SE14G22   30.14F
MOSBY          CLEAR     50  32  50 E14G20    30.15F
WARRENSBURG    SUNNY     50  30  46 E10G16    30.17F
WHITEMAN AFB   SUNNY     49  31  50 SE9       30.16F
CLINTON        MOSUNNY   48  32  53 SE15      30.17F
SEDALIA        MOSUNNY   50  31  48 SE16      30.19F
WARSAW         NOT AVBL
MARSHALL       MOSUNNY   50  34  53 SE10      30.20F
CHILLICOTHE      N/A     47  31  53 E13G18    30.20F
KIRKSVILLE     SUNNY     45  22  40 SE8       30.22F

$$

MOZ041-047>049-056>058-063>065-088>090-097-282100-
...EASTERN AND SOUTHERN MISSOURI...

CITY           SKY/WX    TMP DP  RH WIND       PRES   REMARKS
ST. LOUIS INTL SUNNY     45  19  35 SE10      30.29F
SPIRIT OF STL  MOSUNNY   45  18  34 E9        30.27F
COLUMBIA       MOSUNNY   47  28  47 S10       30.21F
JEFFERSON CITY MOSUNNY   46  27  47 SE8       30.23F
MEXICO         MOSUNNY   48  30  49 E13       30.24F
HANNIBAL       SUNNY     46  12  25 E8        30.25F
ROLLA          MOSUNNY   43  27  53 SE7       30.20F
LEBANON        MOSUNNY   45  32  61 SE10      30.20F
OSAGE BEACH    PTSUNNY   46  32  57 SE9       30.21F
SPRINGFIELD    MOSUNNY   44  30  57 SE16      30.16S
BRANSON        PTSUNNY   45  32  61 E16G29    30.17F
NEVADA         SUNNY     52  32  46 E9        30.14F
JOPLIN         SUNNY     60  38  43 E13       30.09F
WEST PLAINS    CLOUDY    36  32  85 SE7       30.24F WCI  30

$$

IAZ060-094-KSZ022-034>040-054-083-096-NEZ052-066-093-282100-
...KANSAS...SOUTHEAST NEBRASKA AND IOWA...

CITY           SKY/WX    TMP DP  RH WIND       PRES   REMARKS
TOPEKA         SUNNY     56  32  40 SE15G21   30.10F
MANHATTAN      SUNNY     60  34  37 SE10G18   30.05F
EMPORIA        SUNNY     59  35  40 E14G22    30.06F
CHANUTE        SUNNY     61  40  45 SE13      30.07F
WICHITA        SUNNY     69  40  34 E12       30.00F
OMAHA          MOSUNNY   51  28  41 SE15      30.10F
LINCOLN        SUNNY     54  32  43 SE14      30.09F
FALLS CITY     SUNNY     54  31  41 E14G23    30.11F
LAMONI         SUNNY     46  25  43 S9G18     30.17F
DES MOINES     MOSUNNY   49  15  25 S13       30.19F

$$



USA.gov is the U.S. government's official web portal to all federal, state and local government web resources and services.